{"data":{"norad_id":67015,"epoch":"2026-09-20T20:43:31.543392Z","epoch_age_seconds":49839,"freshness":"FRESH","line1":"1 67015U 25293N   26263.86355953  .00002717  00000+0  23540-3 0  9996","line2":"2 67015  70.0014 322.3274 0003815 272.0083  88.0639 14.98329155 44127","mean_motion":14.98329155,"eccentricity":0.0003815,"inclination_deg":70.0014,"raan_deg":322.3274,"arg_perigee_deg":272.0083,"mean_anomaly_deg":88.0639,"bstar":0.0002354,"rev_number":4412,"period_min":96.107053326343,"perigee_km":569.40700445365,"apogee_km":574.71000362323,"semimajor_km":6950.1955040384,"source":"CELESTRAK","updated_at":"2026-09-21T09:00:36.070794Z"}}